[[{"header":{"parameterUnit":"m.s-1","parameterCategory":1,"la1":30.2991,"la2":30.254,"lo1":-89.0895,"lo2":-89.0444,"dy":0.0017,"dx":0.0017,"nx":28,"ny":28,"refTime":"2023-09-08T03:00:00:Z","depth":0,"parameterNumber":2,"parameterNumberName":"U-component_of_WINDS"},"data":[0,0,0,0,0,0,0,0,0,0,0,0,0,0,0,0,0,0,0,0,0,0,0,0,0,0,0,0,0,0,0,0,0,0,0,0,0,0,0,0,0,0,0,0,0,0,0,0,0,0,0,0,0,0,0,0,0,0,-1.0625,-1.0625,0,-1.0558,-1.0557,-1.0556,-1.055,-1.0551,-1.0551,-1.0552,-1.0479,-1.0476,-1.0474,0,0,0,0,0,0,0,0,0,0,0,0,0,-1.0744,-1.0742,-1.0625,-1.0625,-1.0624,-1.0558,-1.0557,-1.0556,-1.055,-1.0551,-1.0551,-1.0552,-1.048,-1.0477,-1.0474,0,0,0,0,0,0,0,0,0,0,0,0,0,-1.0686,-1.0741,-1.0626,-1.0613,-1.0611,-1.0558,-1.0557,-1.0556,-1.055,-1.0551,-1.0552,-1.0553,-1.0481,-1.0477,-1.0473,-1.0428,0,0,-1.0461,-1.0459,0,0,0,0,0,0,0,0,-1.0689,-1.0682,-1.0615,-1.0614,-1.0611,-1.0564,-1.0572,-1.0513,-1.0549,-1.0573,-1.0552,-1.0553,-1.0506,-1.05,-1.0485,-1.0424,-1.0421,-1.0461,-1.0458,-1.0457,-1.0456,0,0,0,0,0,0,0,-1.0693,-1.0684,-1.0599,-1.0614,-1.0612,-1.0609,-1.0602,-1.0561,-1.0534,-1.0571,-1.057,-1.0562,-1.0505,-1.0489,-1.0483,-1.042,-1.0461,-1.0457,-1.0455,-1.0454,-1.0316,-1.0315,0,0,0,0,0,0,-1.07,-1.0688,-1.0601,-1.0597,-1.0654,-1.0606,-1.0598,-1.0578,-1.0534,-1.0529,-1.0562,-1.0562,-1.0495,-1.0488,-1.0481,-1.0422,-1.0457,-1.0453,-1.0451,-1.0317,-1.0315,-1.0314,0,0,0,0,0,0,-1.0703,-1.0693,-1.0603,-1.0642,-1.063,-1.0603,-1.058,-1.0576,-1.056,-1.0528,-1.0522,-1.055,-1.0495,-1.0486,-1.044,-1.042,-1.0451,-1.0448,-1.0319,-1.0317,-1.0315,-1.0307,0,0,0,0,0,0,-1.0706,-1.0694,-1.0677,-1.0642,-1.0628,-1.0566,-1.0579,-1.0574,-1.0553,-1.0554,-1.0515,-1.051,-1.0496,-1.0446,-1.0437,-1.0415,-1.0445,-1.032,-1.0318,-1.0315,-1.0309,-1.0305,-1.0302,0,0,0,0,0,-1.0711,-1.0677,-1.0676,-1.0666,-1.0608,-1.0565,-1.0557,-1.0542,-1.0552,-1.0534,-1.0513,-1.0511,-1.0424,-1.0442,-1.0431,-1.0408,-1.0321,-1.0318,-1.0316,-1.0311,-1.0306,-1.0302,0,0,0,0,0,0,-1.071,-1.0673,-1.0671,-1.0626,-1.0599,-1.0564,-1.0541,-1.0538,-1.0507,-1.0508,-1.049,-1.0481,-1.0436,-1.0417,-1.0438,-1.036,-1.0374,-1.0368,-1.0374,-1.0369,-1.0365,-1.037,-1.0441,0,0,0,0,0,-1.0705,-1.0675,-1.0643,-1.0606,-1.0593,-1.0569,-1.055,-1.0541,-1.0512,-1.05,-1.0476,-1.0446,-1.0412,-1.039,-1.0356,-1.0307,-1.0297,-1.0285,-1.0282,-1.0279,-1.0274,-1.0244,-1.0238,-1.0304,-1.0304,-1.0304,0,0,-1.0694,-1.0669,-1.0651,-1.0605,-1.0583,-1.0551,-1.056,-1.0525,-1.05,-1.0494,-1.045,-1.0431,-1.0396,-1.0348,-1.0326,-1.0331,-1.0254,-1.0275,-1.0273,-1.027,-1.0241,-1.0234,-1.0229,-1.0302,-1.0303,-1.0303,0,0,-1.0656,-1.0636,-1.0602,-1.0579,-1.0546,-1.053,-1.0522,-1.0488,-1.0475,-1.0431,-1.0425,-1.0394,-1.0336,-1.0311,-1.0291,-1.0242,-1.0238,-1.0232,-1.0212,-1.0184,-1.0178,-1.0173,-1.0154,-1.0148,-1.0228,-1.0228,-1.0228,0,-1.0646,-1.0598,-1.0584,-1.055,-1.0529,-1.0523,-1.0487,-1.0465,-1.0422,-1.0407,-1.0415,-1.0341,-1.0317,-1.0262,-1.025,-1.0235,-1.0223,-1.0236,-1.018,-1.0175,-1.0171,-1.0152,-1.0145,-1.0227,-1.0227,-1.0227,-1.0227,0,-1.0585,-1.0552,-1.0529,-1.0488,-1.0464,-1.0429,-1.0409,-1.0386,-1.0379,-1.0362,-1.0315,-1.0287,-1.0247,-1.0233,-1.0226,-1.0176,-1.0181,-1.0185,-1.0197,-1.0164,-1.0146,-1.0139,-1.0226,-1.0226,-1.0226,-1.0226,0,0,-1.0545,-1.0498,-1.0489,-1.0469,-1.0432,-1.0405,-1.0369,-1.0331,-1.0311,-1.0281,-1.0249,-1.0199,-1.0202,-1.0179,-1.0169,-1.0144,-1.0104,-1.015,-1.0149,-1.0141,-1.0045,-1.0041,-1.0033,-1.0102,-1.0101,-1.01,-1.0047,0,-1.0502,-1.0439,-1.0425,-1.0369,-1.0337,-1.0331,-1.0299,-1.0271,-1.0254,-1.0223,-1.0204,-1.0168,-1.0176,-1.0162,-1.0137,-1.0114,-1.0084,-1.0118,-1.007,-1.0068,-1.0077,-1.0024,-1.002,-0.9972,-1.0041,-1.0039,-1.0039,0,-1.0443,-1.0412,-1.0354,-1.0319,-1.0305,-1.0277,-1.024,-1.0211,-1.0179,-1.0168,-1.0142,-1.0133,-1.0093,-1.0109,-1.0052,-1.0076,-1.0055,-1.0041,-1.0039,-1.0032,-1.005,-1.0014,-0.9957,-0.9949,-1.0028,-1.0029,-1.0029,0,-1.0417,-1.0361,-1.0319,-1.0303,-1.0262,-1.0241,-1.0223,-1.0192,-1.0169,-1.0137,-1.0121,-1.0084,-1.0063,-1.0034,-1.0015,-1.0028,-0.9958,-0.9973,-0.9946,-0.9947,-0.9931,-0.9932,-0.9867,-0.9921,-0.9921,-0.9921,-0.9921,0,-1.0369,-1.0333,-1.0306,-1.028,-1.0239,-1.0222,-1.0181,-1.0163,-1.0135,-1.0103,-1.0095,-1.0065,-1.0043,-1.001,-0.9994,-0.9948,-0.9939,-0.9928,-0.9924,-0.9928,-0.9929,-0.9912,-0.9914,-0.9919,-0.9919,-0.992,-0.992,0,-1.0333,-1.0314,-1.0266,-1.0231,-1.0221,-1.0192,-1.0161,-1.0134,-1.0117,-1.0077,-1.0066,-1.0039,-0.9999,-0.9977,-0.9927,-0.9917,-0.9864,-0.9863,-0.9875,-0.9873,-0.9847,-0.9849,-0.9768,-0.9756,-0.9819,-0.9819,-0.9818,0,-1.0302,-1.0275,-1.0236,-1.0215,-1.0196,-1.0162,-1.0139,-1.0122,-1.0098,-1.0058,-1.0035,-0.9995,-0.9962,-0.9898,-0.9872,-0.9833,-0.9829,-0.9804,-0.9823,-0.9827,-0.9826,-0.9827,-0.9823,-0.98,-0.9799,-0.9799,-0.9798,0,-1.025,-1.0242,-1.021,-1.0173,-1.0146,-1.0117,-1.0087,-1.007,-1.0047,-1.002,-0.998,-0.9954,-0.9902,-0.9862,-0.982,-0.98,-0.9794,-0.9793,-0.9784,-0.9786,-0.9794,-0.9787,-0.9864,-0.9794,-0.9795,-0.9795,-0.9795,-0.9795,-1.0214,-1.0189,-1.0157,-1.0121,-1.0097,-1.007,-1.0042,-1.0021,-0.9988,-0.9945,-0.9936,-0.9893,-0.9859,-0.9803,-0.9781,-0.9746,-0.975,-0.9738,-0.9735,-0.9732,-0.9729,-0.9801,-0.9738,-0.9738,-0.9738,-0.9738,-0.9739,0,-1.016,-1.0139,-1.0106,-1.0065,-1.0036,-1.0036,-1.0003,-0.9978,-0.994,-0.991,-0.9877,-0.9829,-0.9789,-0.976,-0.9719,-0.9696,-0.9692,-0.9685,-0.9686,-0.9681,-0.9729,-0.9739,-0.9689,-0.9689,-0.9689,-0.9689,-0.9689,-0.9689,-1.0128,-1.0084,-1.0071,-1.0014,-0.9993,-0.9951,-0.9932,-0.9906,-0.9882,-0.9829,-0.9796,-0.9778,-0.9747,-0.9704,-0.9666,-0.9659,-0.9643,-0.9636,-0.9628,-0.9672,-0.9678,-0.9683,-0.9692,-0.9633,-0.9633,-0.9582,-0.9582,-0.9582]},{"header":{"parameterUnit":"m.s-1","parameterCategory":1,"la1":30.2991,"la2":30.254,"lo1":-89.0895,"lo2":-89.0444,"dy":0.0017,"dx":0.0017,"nx":28,"ny":28,"refTime":"2023-09-08T03:00:00:Z","depth":0,"parameterNumber":3,"parameterNumberName":"V-component_of_WINDS"},"data":[0,0,0,0,0,0,0,0,0,0,0,0,0,0,0,0,0,0,0,0,0,0,0,0,0,0,0,0,0,0,0,0,0,0,0,0,0,0,0,0,0,0,0,0,0,0,0,0,0,0,0,0,0,0,0,0,0,0,-0.1199,-0.1201,0,-0.1384,-0.1386,-0.1388,-0.1517,-0.1518,-0.1519,-0.152,-0.1713,-0.1717,-0.1721,0,0,0,0,0,0,0,0,0,0,0,0,0,-0.0961,-0.0965,-0.1199,-0.1202,-0.1204,-0.1384,-0.1386,-0.1389,-0.1517,-0.1518,-0.1519,-0.1521,-0.1712,-0.1717,-0.1722,0,0,0,0,0,0,0,0,0,0,0,0,0,-0.1097,-0.0966,-0.1199,-0.1289,-0.1299,-0.1383,-0.1387,-0.139,-0.1517,-0.1518,-0.152,-0.1521,-0.171,-0.1716,-0.1722,-0.1732,0,0,-0.1742,-0.1744,0,0,0,0,0,0,0,0,-0.1089,-0.1106,-0.1274,-0.1283,-0.1295,-0.1429,-0.1374,-0.1505,-0.1516,-0.1434,-0.152,-0.1522,-0.1618,-0.1632,-0.1663,-0.1741,-0.175,-0.1742,-0.1746,-0.1749,-0.1751,0,0,0,0,0,0,0,-0.108,-0.1099,-0.1273,-0.1276,-0.1289,-0.1322,-0.1343,-0.1399,-0.1516,-0.1442,-0.1451,-0.1471,-0.1624,-0.1657,-0.1669,-0.1752,-0.1742,-0.1748,-0.1752,-0.1754,-0.1849,-0.1848,0,0,0,0,0,0,-0.1056,-0.109,-0.1267,-0.1278,-0.1193,-0.1325,-0.1349,-0.1384,-0.1515,-0.1537,-0.147,-0.1477,-0.1645,-0.1661,-0.1676,-0.1697,-0.1749,-0.1755,-0.1758,-0.1851,-0.1849,-0.1848,0,0,0,0,0,0,-0.105,-0.107,-0.1259,-0.1187,-0.1213,-0.1328,-0.1367,-0.1387,-0.1421,-0.1537,-0.1559,-0.1482,-0.1647,-0.1667,-0.1717,-0.1705,-0.1758,-0.1763,-0.1852,-0.185,-0.1848,-0.1737,0,0,0,0,0,0,-0.1043,-0.1067,-0.1071,-0.1186,-0.1217,-0.1296,-0.1366,-0.139,-0.1431,-0.1441,-0.1554,-0.1574,-0.165,-0.1707,-0.1724,-0.1715,-0.1768,-0.1854,-0.1851,-0.1849,-0.1743,-0.1732,-0.1723,0,0,0,0,0,-0.1034,-0.1033,-0.1071,-0.1091,-0.1224,-0.1295,-0.1313,-0.1399,-0.1429,-0.1435,-0.151,-0.157,-0.1704,-0.1711,-0.1731,-0.1724,-0.1855,-0.1852,-0.1849,-0.1747,-0.1734,-0.1723,0,0,0,0,0,0,-0.0915,-0.105,-0.1093,-0.1129,-0.1199,-0.1316,-0.1326,-0.1382,-0.1446,-0.1453,-0.1559,-0.1583,-0.1623,-0.1679,-0.1684,-0.1741,-0.1787,-0.1788,-0.1703,-0.1691,-0.1681,-0.1667,-0.1774,0,0,0,0,0,-0.0893,-0.0938,-0.1054,-0.1075,-0.1108,-0.121,-0.1244,-0.1305,-0.1382,-0.1413,-0.1492,-0.1566,-0.1625,-0.1661,-0.1722,-0.1752,-0.1779,-0.1757,-0.1747,-0.1738,-0.1737,-0.1758,-0.175,-0.1838,-0.1838,-0.1838,0,0,-0.0848,-0.0927,-0.0949,-0.1053,-0.1114,-0.116,-0.1234,-0.128,-0.1315,-0.1421,-0.1472,-0.1532,-0.1623,-0.1662,-0.1684,-0.171,-0.1719,-0.1734,-0.1726,-0.1731,-0.1754,-0.1746,-0.1738,-0.1836,-0.1837,-0.1837,0,0,-0.0789,-0.0853,-0.0877,-0.0938,-0.103,-0.1098,-0.1104,-0.1213,-0.1256,-0.131,-0.139,-0.1435,-0.1534,-0.1595,-0.1638,-0.1603,-0.1662,-0.1621,-0.1568,-0.1587,-0.158,-0.1575,-0.1563,-0.1557,-0.162,-0.1619,-0.1619,0,-0.0721,-0.0792,-0.0883,-0.0924,-0.0967,-0.1064,-0.1091,-0.1145,-0.1252,-0.1281,-0.1309,-0.1435,-0.1503,-0.1559,-0.155,-0.1582,-0.1593,-0.1608,-0.1574,-0.1569,-0.1565,-0.1555,-0.155,-0.1614,-0.1614,-0.1615,-0.1616,0,-0.0705,-0.0753,-0.0762,-0.0862,-0.0907,-0.094,-0.1037,-0.1072,-0.1129,-0.1195,-0.1249,-0.1333,-0.1413,-0.1431,-0.1487,-0.1495,-0.1509,-0.1553,-0.1602,-0.1549,-0.1542,-0.1538,-0.1606,-0.1608,-0.1609,-0.1611,0,0,-0.0575,-0.0726,-0.0727,-0.0774,-0.0883,-0.0923,-0.0961,-0.1038,-0.1066,-0.1137,-0.1173,-0.1255,-0.1297,-0.1347,-0.1411,-0.1428,-0.1395,-0.1471,-0.1475,-0.1454,-0.141,-0.1375,-0.1369,-0.1435,-0.1435,-0.1434,-0.1403,0,-0.0533,-0.0605,-0.0689,-0.0733,-0.0779,-0.0872,-0.0906,-0.0977,-0.104,-0.1089,-0.116,-0.1216,-0.1268,-0.1298,-0.1319,-0.1394,-0.1388,-0.1398,-0.147,-0.1471,-0.1444,-0.1365,-0.1328,-0.1294,-0.14,-0.14,-0.1399,0,-0.0493,-0.0558,-0.0606,-0.0711,-0.0734,-0.0762,-0.084,-0.0886,-0.0969,-0.1014,-0.1069,-0.1138,-0.1185,-0.1228,-0.1294,-0.1299,-0.1334,-0.1376,-0.1377,-0.1387,-0.1431,-0.1372,-0.1285,-0.128,-0.1395,-0.1396,-0.1396,0,-0.0393,-0.0494,-0.0535,-0.0573,-0.0697,-0.0715,-0.0768,-0.0853,-0.0893,-0.0962,-0.099,-0.1063,-0.1103,-0.1159,-0.1247,-0.127,-0.1304,-0.1354,-0.1343,-0.1341,-0.1346,-0.1344,-0.1263,-0.1368,-0.1368,-0.1369,-0.1369,0,-0.0337,-0.0363,-0.0492,-0.0518,-0.055,-0.0647,-0.0676,-0.0738,-0.0813,-0.0853,-0.0939,-0.0976,-0.1089,-0.1139,-0.1208,-0.1253,-0.1271,-0.1309,-0.1327,-0.1301,-0.1296,-0.1325,-0.1329,-0.1367,-0.1368,-0.1368,-0.1368,0,-0.0231,-0.0319,-0.037,-0.0483,-0.0513,-0.0531,-0.0629,-0.0658,-0.0727,-0.0777,-0.0794,-0.0901,-0.0965,-0.1058,-0.115,-0.1197,-0.1231,-0.1261,-0.1202,-0.1213,-0.1197,-0.1197,-0.1131,-0.1127,-0.1234,-0.1233,-0.1232,0,-0.0189,-0.021,-0.0326,-0.0358,-0.0408,-0.0459,-0.0501,-0.0599,-0.0639,-0.0736,-0.0754,-0.0824,-0.0885,-0.0983,-0.107,-0.1142,-0.1173,-0.1145,-0.1185,-0.1158,-0.1173,-0.117,-0.1173,-0.1135,-0.1134,-0.1132,-0.1131,0,-0.0104,-0.0147,-0.0204,-0.0275,-0.0323,-0.0385,-0.0451,-0.0473,-0.0585,-0.0626,-0.0692,-0.0739,-0.0833,-0.0902,-0.0985,-0.1042,-0.1105,-0.1118,-0.112,-0.1093,-0.1058,-0.1077,-0.1176,-0.1119,-0.1121,-0.1121,-0.1122,-0.1123,-0.003,-0.0053,-0.0138,-0.0199,-0.0258,-0.0318,-0.0351,-0.0423,-0.0479,-0.0562,-0.0617,-0.0679,-0.0764,-0.0882,-0.0936,-0.0988,-0.1014,-0.1016,-0.1016,-0.1015,-0.1006,-0.105,-0.1003,-0.1004,-0.1004,-0.1005,-0.1005,0,0.005,-0.0009,-0.0063,-0.0153,-0.02,-0.0255,-0.0331,-0.0368,-0.0422,-0.0495,-0.0553,-0.0629,-0.0697,-0.0789,-0.0864,-0.0888,-0.0919,-0.0904,-0.0903,-0.0915,-0.0978,-0.0969,-0.0877,-0.0877,-0.0878,-0.0878,-0.0878,-0.0878,0.0086,0.0043,-0.0009,-0.0084,-0.0144,-0.0204,-0.0243,-0.03,-0.0358,-0.0439,-0.0495,-0.0554,-0.0636,-0.0717,-0.0782,-0.0808,-0.0832,-0.0808,-0.0842,-0.0899,-0.0911,-0.0922,-0.0914,-0.0812,-0.0812,-0.0776,-0.0775,-0.0775]}]]